This is the latest recevied weather packets stored in our database for station/object EA1FWM-12. If no packets are shown the sender has not sent any weather packets the latest 10 day(s).
| Time | Temp. | Humidity | Pressure | Rain* | Wind** | Luminosity | Snow |
|---|---|---|---|---|---|---|---|
| 1788122691 | 13.33° C | 71% | 1025.7 hPa | - | - | - | - |
| 1788121791 | 13.89° C | 70% | 1025.5 hPa | - | - | - | - |
| 1788120892 | 14.44° C | 69% | 1025.3 hPa | - | - | - | - |
| 1788119992 | 15° C | 68% | 1025.1 hPa | - | - | - | - |
| 1788119093 | 15.56° C | 66% | 1024.8 hPa | - | - | - | - |
| 1788118193 | 16.11° C | 65% | 1024.5 hPa | - | - | - | - |
| 1788117381 | 16.67° C | 64% | 1024.4 hPa | - | - | - | - |
| 1788117349 | 16.67° C | 64% | 1024.4 hPa | - | - | - | - |
| 1788117293 | 16.67° C | 64% | 1024.4 hPa | - | - | - | - |
| 1788116394 | 17.78° C | 61% | 1024.3 hPa | - | - | - | - |
| 1788115495 | 18.89° C | 58% | 1024.2 hPa | - | - | - | - |
| 1788114594 | 20.56° C | 55% | 1024.1 hPa | - | - | - | - |
| 1788113694 | 22.78° C | 53% | 1024.1 hPa | - | - | - | - |
| 1788111896 | 23.89° C | 51% | 1024.1 hPa | - | - | - | - |
| 1788110996 | 24.44° C | 50% | 1024.1 hPa | - | - | - | - |
| 1788110097 | 25° C | 48% | 1024.1 hPa | - | - | - | - |
| 1788109197 | 25° C | 48% | 1024 hPa | - | - | - | - |
| 1788108297 | 25° C | 50% | 1024 hPa | - | - | - | - |
| 1788107398 | 25° C | 49% | 1023.9 hPa | - | - | - | - |
| 1788106498 | 25° C | 48% | 1023.9 hPa | - | - | - | - |
| 1788104698 | 28.33° C | 48% | 1024 hPa | - | - | - | - |
| 1788103871 | 26.11° C | 48% | 1024 hPa | - | - | - | - |
| 1788102067 | 25.56° C | 49% | 1023.8 hPa | - | - | - | - |
| 1788101168 | 25° C | 50% | 1023.9 hPa | - | - | - | - |
| 1788100268 | 25.56° C | 51% | 1024 hPa | - | - | - | - |
* Rain since midnight (hover to see other rain measurements)
** Current wind speed in m/s (hover to see current wind gust speed)